DateTimeUTC,F1_A11,F1_S11,BsB_S11,BsG_S11,BsR_S11,BbsB_S11,BbsG_S11,BbsR_S11,BaB_A11,BaG_A11,BaR_A11,Tu_S11,T_S11,Uu_S11,U_S11,P_S11,T1_A11
2021-02-04T07:00:00Z,00000200,21000000,,,,,,,0000.25,-000.51,0000.43,16.7,23.6,,00.0,0617.9,31.0
2021-02-04T07:01:00Z,00000200,21000000,,,,,,,-000.06,0000.22,-000.02,16.7,23.6,,00.0,0617.9,31.0
2021-02-04T07:02:00Z,00000200,21000000,,,,,,,0000.47,0000.75,0000.13,16.7,23.7,,00.0,0617.9,31.0
2021-02-04T07:03:00Z,00000200,61000000,,,,,,,0000.18,0000.22,0000.42,16.7,23.7,,00.0,0617.9,31.0
2021-02-04T07:04:00Z,00000200,41000000,-000.05,-000.24,0000.13,-000.25,0000.03,0000.05,0000.36,-000.14,0000.08,17.1,23.6,00.2,00.1,0618.7,31.0
2021-02-04T07:05:00Z,00000200,01000000,0000.89,-000.06,-000.23,-000.13,0000.12,0000.10,-000.53,-000.12,-000.03,17.2,23.6,00.3,00.2,0618.7,31.0
2021-02-04T07:06:00Z,00000200,01000000,0000.84,0000.09,0000.18,0000.07,0000.08,0000.19,0000.21,-000.02,0000.13,17.2,23.6,00.3,00.2,0618.7,31.0
2021-02-04T07:07:00Z,00000200,01000000,-000.29,0000.11,-000.06,0000.00,0000.19,0000.32,0000.43,0000.22,-000.27,17.2,23.6,00.3,00.2,0618.8,31.0
2021-02-04T07:08:00Z,00000200,01000000,-000.11,-000.24,0000.08,-000.06,-000.04,-000.02,-000.31,0000.13,0000.07,17.2,23.6,00.3,00.2,0618.8,31.0
2021-02-04T07:09:00Z,00000200,01000000,-000.14,0000.13,-000.04,0000.28,0000.17,-000.26,0000.15,0000.19,0000.17,17.2,23.6,00.2,00.1,0618.8,31.0
2021-02-04T07:10:00Z,00000200,01000000,-000.14,-000.04,-000.02,0000.31,0000.50,-000.28,0000.05,0000.07,-000.34,17.2,23.6,00.2,00.2,0618.8,31.0
2021-02-04T07:11:00Z,00000200,01000000,0000.29,-000.17,-000.12,0000.23,0000.03,-000.02,0000.03,0000.23,0000.23,17.2,23.5,00.2,00.2,0618.8,31.0
2021-02-04T07:12:00Z,00000200,01000000,0000.17,0000.15,0000.06,0000.34,-000.01,0000.12,0000.22,-000.25,0000.13,17.2,23.6,00.3,00.2,0618.9,31.0
2021-02-04T07:13:00Z,00000200,01000000,0000.06,-000.04,0000.01,0000.14,-000.01,-000.03,-000.41,-000.03,-000.04,17.2,23.6,00.2,00.1,0618.9,31.0
2021-02-04T07:14:00Z,00000200,01000000,-000.73,0000.06,-000.09,0000.18,0000.16,-000.17,0000.21,0000.26,0000.31,17.2,23.6,00.4,00.2,0618.9,31.0
2021-02-04T07:15:00Z,00000200,01000000,-000.21,-000.21,-000.13,0000.08,0000.26,-000.33,0000.08,-000.18,-000.26,17.2,23.5,00.3,00.2,0618.8,31.0
2021-02-04T07:16:00Z,00000200,01000000,0000.27,0000.12,-000.01,-000.17,-000.05,-000.20,-000.29,-000.19,0000.18,17.1,23.5,00.4,00.2,0618.9,31.0
2021-02-04T07:17:00Z,00000200,01000000,-000.21,0000.02,0000.12,0000.31,0000.02,0000.02,0000.26,0000.10,-000.28,17.1,23.6,00.3,00.2,0618.9,31.0
2021-02-04T07:18:00Z,00000200,01000000,-000.21,0000.00,-000.02,-000.45,-000.00,0000.20,0000.36,0000.10,0000.23,17.1,23.5,00.3,00.2,0618.8,31.0
2021-02-04T07:19:00Z,00000200,01000000,-000.20,0000.47,0000.18,0000.38,0000.31,0000.00,-000.14,0000.04,-000.17,17.1,23.5,00.4,00.2,0619.0,31.0
2021-02-04T07:20:00Z,00000200,01000000,-000.21,-000.10,0000.04,-000.12,0000.20,-000.16,0000.11,0000.42,0000.21,17.1,23.5,00.4,00.3,0619.0,31.0
2021-02-04T07:21:00Z,00000200,01000000,-000.43,-000.28,-000.10,-000.47,0000.16,-000.08,-000.09,-000.15,0000.12,17.1,23.5,00.4,00.2,0619.0,31.0
2021-02-04T07:22:00Z,00000200,01000000,-000.00,-000.02,-000.23,-000.10,0000.17,-000.16,0000.21,0000.15,0000.08,17.1,23.5,00.3,00.2,0619.1,31.0
2021-02-04T07:23:00Z,00000200,01000000,0000.11,0000.29,-000.10,-000.46,0000.19,-000.00,-000.14,-000.00,-000.57,17.1,23.5,00.4,00.3,0619.1,31.0
2021-02-04T07:24:00Z,00000200,01000000,0000.01,-000.04,0000.14,0000.06,0000.29,0000.19,0000.60,0000.15,0000.64,17.1,23.5,00.4,00.2,0619.1,31.0
2021-02-04T07:25:00Z,00000200,01000000,-000.07,0000.08,-000.28,-000.06,-000.00,-000.22,-000.74,-000.36,-000.14,17.1,23.5,00.4,00.2,0619.1,31.0
2021-02-04T07:26:00Z,00000200,01000000,0000.51,0000.31,-000.10,0000.15,0000.15,0000.12,0000.22,0000.14,-000.08,17.1,23.5,00.3,00.2,0619.2,31.0
2021-02-04T07:27:00Z,00000200,01000000,0000.27,0000.20,0000.13,0000.22,0000.16,-000.15,0000.36,-000.16,0000.19,17.1,23.5,00.3,00.2,0619.2,31.0
2021-02-04T07:28:00Z,00000200,01000000,0000.30,0000.02,-000.07,0000.74,0000.04,-000.03,-000.35,0000.09,-000.11,17.0,23.5,00.4,00.3,0619.1,31.0
2021-02-04T07:29:00Z,00000200,01000000,0000.18,-000.34,0000.11,0000.03,0000.15,0000.07,0000.33,0000.34,-000.18,17.0,23.5,00.3,00.2,0619.2,31.0
2021-02-04T07:30:00Z,00000200,01000000,-000.14,0000.03,0000.08,0000.06,-000.02,0000.27,-000.35,-000.89,0000.26,17.0,23.5,00.4,00.3,0619.2,31.0
2021-02-04T07:31:00Z,00000200,01000000,-000.04,0000.33,0000.06,0000.44,0000.11,0000.08,0000.22,0000.32,0000.29,17.0,23.5,00.6,00.4,0619.2,31.0
2021-02-04T07:32:00Z,00000200,01000000,0000.21,-000.18,-000.22,0000.11,0000.13,-000.14,0000.39,0000.42,0000.03,17.1,23.5,00.4,00.3,0619.2,31.0
2021-02-04T07:33:00Z,00000200,01000000,0000.03,-000.06,0000.06,-000.13,0000.02,-000.01,-000.08,0000.52,0000.02,17.2,23.5,00.4,00.3,0619.1,31.0
2021-02-04T07:34:00Z,00000200,01000000,0000.60,-000.17,0000.15,-000.21,0000.15,-000.16,-000.05,0000.14,0000.15,17.3,23.6,00.4,00.2,0619.1,31.0
2021-02-04T07:35:00Z,00000200,01000000,-000.04,-000.24,0000.25,0000.00,0000.28,0000.02,0000.39,0000.01,-000.17,17.3,23.6,00.4,00.3,0619.0,31.0
2021-02-04T07:36:00Z,00000200,01000000,-000.05,0000.05,0000.35,0000.01,0000.07,0000.18,-000.05,-000.28,0000.10,17.3,23.6,00.4,00.3,0619.0,31.0
2021-02-04T07:37:00Z,00000200,01000000,-000.40,0000.00,0000.20,-000.26,0000.00,0000.33,-000.03,0000.15,-000.05,17.3,23.6,00.3,00.2,0619.1,31.0
2021-02-04T07:38:00Z,00000200,01000000,0000.05,0000.13,-000.11,0000.39,0000.10,-000.14,-000.02,-000.11,-000.07,17.3,23.6,00.4,00.3,0619.1,31.0
2021-02-04T07:39:00Z,00000200,01000000,-000.36,0000.03,-000.17,0000.29,0000.01,-000.01,0000.02,0000.04,0000.01,17.3,23.6,00.3,00.2,0619.1,31.0
2021-02-04T07:40:00Z,00000200,01000000,-000.01,0000.14,-000.08,-000.59,0000.06,0000.06,0000.07,-000.29,-000.09,17.3,23.6,00.4,00.3,0619.0,31.0
2021-02-04T07:41:00Z,00000200,01000000,0000.19,-000.12,0000.11,0000.42,0000.32,-000.17,-000.10,0000.65,0000.38,17.3,23.6,00.5,00.3,0619.0,31.0
2021-02-04T07:42:00Z,00000200,01000000,0000.24,-000.05,0000.20,0000.30,0000.22,0000.06,0000.35,-000.25,-000.04,17.3,23.6,00.4,00.3,0619.0,31.0
2021-02-04T07:43:00Z,00000200,01000000,-000.05,0000.02,0000.16,-000.11,0000.12,-000.08,-000.25,-000.13,-000.18,17.2,23.6,00.4,00.3,0619.0,31.0
2021-02-04T07:44:00Z,00000200,01000000,0000.65,0000.00,-000.21,-000.05,0000.12,-000.02,0000.62,0000.61,0000.55,17.2,23.6,00.4,00.2,0619.0,31.0
2021-02-04T07:45:00Z,00000200,01000000,0000.09,-000.42,-000.20,-000.33,0000.32,-000.12,0000.17,-000.51,-000.25,17.2,23.6,00.5,00.3,0619.1,31.0
2021-02-04T07:46:00Z,00000200,01000000,-000.21,-000.02,-000.10,0000.06,0000.05,-000.05,-000.26,0000.35,0000.05,17.2,23.6,00.5,00.4,0619.1,31.0
2021-02-04T07:47:00Z,00000200,01000000,0000.14,-000.02,-000.07,0000.47,0000.16,-000.17,-000.24,-000.43,0000.27,17.3,23.6,00.4,00.3,0619.1,31.0
2021-02-04T07:48:00Z,00000200,01000000,0000.00,-000.01,-000.02,0000.39,-000.07,-000.13,0000.13,0000.61,-000.10,17.3,23.6,00.4,00.3,0619.2,31.0
2021-02-04T07:49:00Z,00000200,01000000,0000.72,-000.23,-000.10,0000.03,0000.19,-000.05,0000.28,-000.17,-000.05,17.3,23.6,00.5,00.4,0619.2,31.0
2021-02-04T07:50:00Z,00000200,01000000,-000.18,0000.16,0000.09,-000.03,0000.33,0000.16,0000.33,0000.49,0000.50,17.3,23.7,00.5,00.3,0619.2,31.0
2021-02-04T07:51:00Z,00000200,01000000,-000.45,0000.18,0000.11,0000.11,0000.27,-000.10,0000.16,-000.20,-000.32,17.3,23.7,00.4,00.3,0619.1,31.0
2021-02-04T07:52:00Z,00000200,01000000,0000.35,-000.15,0000.03,0000.38,0000.06,-000.27,-000.28,0000.04,-000.18,17.4,23.6,00.4,00.3,0619.2,31.0
2021-02-04T07:53:00Z,00000200,01000000,-000.15,0000.00,-000.20,0000.10,0000.18,0000.00,-000.22,-000.34,0000.27,17.3,23.7,00.5,00.3,0619.3,31.0
2021-02-04T07:54:00Z,00000200,01000000,-000.20,0000.01,0000.24,-000.08,0000.09,0000.11,-000.21,0000.14,0000.14,17.3,23.7,00.6,00.4,0619.3,31.0
2021-02-04T07:55:00Z,00000200,01000000,-001.07,0000.40,-000.05,0000.58,-000.00,-000.20,0000.12,0000.23,-000.43,17.3,23.6,00.5,00.3,0619.3,31.0
2021-02-04T07:56:00Z,00000200,01000000,-000.09,-000.29,-000.16,0000.40,-000.23,-000.15,0000.23,0000.04,0000.14,17.3,23.6,00.5,00.3,0619.4,31.0
2021-02-04T07:57:00Z,00000200,41000000,,,,,,,-000.51,-000.53,-000.32,17.4,23.7,00.9,00.6,0619.3,31.0
2021-02-04T07:58:00Z,00000200,61000000,,,,,,,0000.40,0000.09,0000.18,17.0,23.7,00.4,00.2,0618.5,31.0
2021-02-04T07:59:00Z,00000200,21000000,,,,,,,0000.01,0000.30,0000.33,16.9,23.8,00.3,00.2,0618.5,31.0
